When you browse on this site, cookies collect data to enhance your experience and personalize the content and advertising you see.
Visit our Privacy Policy to learn more. By continuing to use the site, you agree to this use of cookies and data.
  • In Romania
  • List of Countries
  • For 7 days
  • Water Temperature
  • Satellite Maps
  • Weather Map
  • Weather Widgets
  • user-avatar
    Login

    Hourly Weather Rochester

    Today, 22 May, Wednesday

    Time Temperature Precipitation Wind Pressure Humidity
    00:00 +8°C° 0 mm 2 mps 752 mmHg 85%
    01:00 +8°C° 0 mm 1 mps 752 mmHg 89%
    02:00 +8°C° 0 mm 1 mps 752 mmHg 89%
    03:00 +8°C° 0 mm 1 mps 752 mmHg 90%
    04:00 +7°C° 0 mm 1 mps 753 mmHg 90%
    05:00 +9°C° 0 mm 1 mps 753 mmHg 85%
    06:00 +10°C° 0 mm 1 mps 753 mmHg 80%
    07:00 +12°C° 0 mm 1 mps 753 mmHg 75%
    08:00 +14°C° 0 mm 2 mps 753 mmHg 69%
    09:00 +16°C° 0 mm 2 mps 753 mmHg 63%
    10:00 +17°C° 0 mm 3 mps 753 mmHg 57%
    11:00 +18°C° 0 mm 3 mps 753 mmHg 57%
    12:00 +18°C° 0 mm 4 mps 753 mmHg 57%
    13:00 +19°C° 0 mm 4 mps 752 mmHg 56%
    14:00 +20°C° 0 mm 5 mps 752 mmHg 58%
    15:00 +20°C° 0 mm 5 mps 751 mmHg 59%
    16:00 +21°C° 0 mm 5 mps 750 mmHg 60%
    17:00 +20°C° 0 mm 5 mps 750 mmHg 63%
    18:00 +19°C° 0 mm 5 mps 750 mmHg 66%
    19:00 +17°C° 0 mm 5 mps 749 mmHg 69%
    20:00 +17°C° 2.2 mm 4 mps 749 mmHg 78%
    21:00 +15°C° 2.2 mm 4 mps 749 mmHg 86%
    22:00 +14°C° 2.2 mm 4 mps 749 mmHg 94%
    23:00 +14°C° 0.4 mm 4 mps 749 mmHg 94%

    Tomorrow, 23 May, Thursday

    Time Temperature Precipitation Wind Pressure Humidity
    00:00 +14°C° 0.4 mm 4 mps 748 mmHg 94%
    01:00 +14°C° 0.4 mm 4 mps 748 mmHg 94%
    02:00 +14°C° 0 mm 3 mps 748 mmHg 94%
    03:00 +14°C° 0 mm 3 mps 747 mmHg 94%
    04:00 +16°C° 0 mm 3 mps 747 mmHg 95%
    05:00 +17°C° 0 mm 2 mps 747 mmHg 94%
    06:00 +18°C° 0 mm 2 mps 747 mmHg 94%
    07:00 +19°C° 0 mm 2 mps 747 mmHg 93%
    08:00 +20°C° 0 mm 2 mps 747 mmHg 91%
    09:00 +21°C° 0 mm 3 mps 747 mmHg 88%
    10:00 +22°C° 0 mm 3 mps 746 mmHg 86%
    11:00 +23°C° 0.2 mm 4 mps 746 mmHg 83%
    12:00 +23°C° 0.2 mm 4 mps 745 mmHg 80%
    13:00 +25°C° 0.2 mm 5 mps 744 mmHg 78%
    14:00 +23°C° 0.3 mm 6 mps 744 mmHg 78%
    15:00 +23°C° 0.3 mm 8 mps 743 mmHg 79%
    16:00 +23°C° 0.3 mm 9 mps 743 mmHg 79%
    17:00 +22°C° 0.2 mm 8 mps 743 mmHg 79%
    18:00 +20°C° 0.2 mm 7 mps 743 mmHg 80%
    19:00 +19°C° 0.2 mm 6 mps 743 mmHg 80%
    20:00 +17°C° 0 mm 6 mps 744 mmHg 80%
    21:00 +16°C° 0 mm 5 mps 744 mmHg 81%
    22:00 +15°C° 0 mm 5 mps 744 mmHg 81%
    23:00 +14°C° 0 mm 5 mps 744 mmHg 83%

    Day after tomorrow, 24 May, Friday

    Time Temperature Precipitation Wind Pressure Humidity
    00:00 +13°C° 0 mm 5 mps 744 mmHg 85%
    01:00 +13°C° 0 mm 6 mps 745 mmHg 87%
    02:00 +11°C° 0 mm 6 mps 745 mmHg 88%
    03:00 +11°C° 0 mm 6 mps 745 mmHg 89%
    04:00 +10°C° 0 mm 6 mps 745 mmHg 90%
    05:00 +10°C° 0 mm 6 mps 746 mmHg 89%
    06:00 +11°C° 0 mm 6 mps 747 mmHg 88%
    07:00 +11°C° 0 mm 6 mps 747 mmHg 87%
    08:00 +13°C° 0 mm 6 mps 748 mmHg 85%
    09:00 +13°C° 0 mm 6 mps 748 mmHg 83%
    10:00 +13°C° 0 mm 6 mps 749 mmHg 81%
    11:00 +15°C° 0 mm 5 mps 749 mmHg 77%
    12:00 +16°C° 0 mm 5 mps 749 mmHg 73%
    13:00 +18°C° 0 mm 4 mps 750 mmHg 69%
    14:00 +18°C° 0 mm 4 mps 750 mmHg 68%
    15:00 +19°C° 0 mm 3 mps 750 mmHg 67%
    16:00 +19°C° 0 mm 3 mps 750 mmHg 67%
    17:00 +18°C° 0 mm 2 mps 750 mmHg 71%
    18:00 +18°C° 0 mm 1 mps 750 mmHg 75%
    19:00 +15°C° 0 mm 0 mps 750 mmHg 79%
    20:00 +15°C° 0 mm 1 mps 750 mmHg 82%
    21:00 +14°C° 0 mm 1 mps 750 mmHg 85%
    22:00 +13°C° 0 mm 2 mps 751 mmHg 87%
    23:00 +12°C° 0 mm 2 mps 750 mmHg 89%

    25 May, Saturday

    Time Temperature Precipitation Wind Pressure Humidity
    00:00 +12°C° 0 mm 2 mps 750 mmHg 90%
    01:00 +11°C° 0 mm 3 mps 750 mmHg 91%
    02:00 +11°C° 0 mm 3 mps 750 mmHg 91%
    03:00 +11°C° 0 mm 3 mps 749 mmHg 91%
    04:00 +11°C° 0 mm 3 mps 749 mmHg 90%
    05:00 +12°C° 0.2 mm 3 mps 749 mmHg 90%
    06:00 +13°C° 0.2 mm 3 mps 748 mmHg 89%
    07:00 +14°C° 0.2 mm 3 mps 748 mmHg 88%
    08:00 +17°C° 0.1 mm 4 mps 747 mmHg 87%
    09:00 +19°C° 0.1 mm 4 mps 747 mmHg 85%
    10:00 +21°C° 0.1 mm 5 mps 746 mmHg 83%
    11:00 +23°C° 0.7 mm 5 mps 746 mmHg 80%
    12:00 +26°C° 0.7 mm 6 mps 745 mmHg 78%
    13:00 +28°C° 0.7 mm 6 mps 744 mmHg 75%
    14:00 +27°C° 1.1 mm 7 mps 744 mmHg 76%
    15:00 +27°C° 1.1 mm 7 mps 744 mmHg 78%
    16:00 +26°C° 1.1 mm 7 mps 743 mmHg 80%
    17:00 +24°C° 0.6 mm 7 mps 743 mmHg 83%
    18:00 +23°C° 0.6 mm 7 mps 743 mmHg 86%
    19:00 +21°C° 0.6 mm 7 mps 743 mmHg 89%
    20:00 +21°C° 0 mm 7 mps 743 mmHg 90%
    21:00 +20°C° 0 mm 6 mps 744 mmHg 91%
    22:00 +20°C° 0 mm 6 mps 744 mmHg 92%
    23:00 +20°C° 0 mm 6 mps 744 mmHg 92%

    26 May, Sunday

    Time Temperature Precipitation Wind Pressure Humidity
    00:00 +19°C° 0 mm 6 mps 744 mmHg 93%
    01:00 +19°C° 0 mm 6 mps 743 mmHg 93%
    02:00 +19°C° 0 mm 5 mps 743 mmHg 94%
    03:00 +17°C° 0 mm 5 mps 743 mmHg 95%
    04:00 +17°C° 0 mm 5 mps 743 mmHg 95%
    05:00 +17°C° 0 mm 5 mps 744 mmHg 94%
    06:00 +19°C° 0 mm 5 mps 744 mmHg 92%
    07:00 +20°C° 0 mm 4 mps 745 mmHg 91%
    08:00 +20°C° 0 mm 4 mps 745 mmHg 89%
    09:00 +21°C° 0 mm 4 mps 745 mmHg 87%
    10:00 +21°C° 0 mm 4 mps 745 mmHg 84%
    11:00 +22°C° 0 mm 4 mps 745 mmHg 80%
    12:00 +23°C° 0 mm 4 mps 745 mmHg 75%
    13:00 +25°C° 0 mm 4 mps 745 mmHg 70%
    14:00 +25°C° 0 mm 3 mps 744 mmHg 70%
    15:00 +25°C° 0 mm 3 mps 744 mmHg 70%
    16:00 +25°C° 0 mm 3 mps 744 mmHg 70%
    17:00 +23°C° 0 mm 2 mps 744 mmHg 73%
    18:00 +22°C° 0 mm 1 mps 744 mmHg 77%
    19:00 +20°C° 0 mm 1 mps 744 mmHg 81%
    20:00 +19°C° 0 mm 1 mps 744 mmHg 84%
    21:00 +18°C° 0 mm 1 mps 744 mmHg 88%
    22:00 +16°C° 0 mm 2 mps 744 mmHg 92%
    23:00 +16°C° 0 mm 2 mps 744 mmHg 93%

    27 May, Monday

    Time Temperature Precipitation Wind Pressure Humidity
    00:00 +14°C° 0 mm 3 mps 744 mmHg 94%
    01:00 +13°C° 0 mm 3 mps 743 mmHg 95%
    02:00 +13°C° 0 mm 4 mps 743 mmHg 94%
    03:00 +12°C° 0 mm 4 mps 743 mmHg 94%
    04:00 +11°C° 0 mm 4 mps 744 mmHg 94%
    05:00 +12°C° 0 mm 5 mps 744 mmHg 91%
    06:00 +12°C° 0 mm 5 mps 744 mmHg 88%
    07:00 +13°C° 0 mm 5 mps 745 mmHg 85%
    08:00 +13°C° 0.1 mm 5 mps 745 mmHg 86%
    09:00 +12°C° 0.1 mm 5 mps 746 mmHg 87%
    10:00 +10°C° 0.1 mm 5 mps 746 mmHg 89%
    11:00 +13°C° 0 mm 5 mps 746 mmHg 81%
    12:00 +14°C° 0 mm 5 mps 746 mmHg 72%
    13:00 +15°C° 0 mm 5 mps 747 mmHg 64%
    14:00 +15°C° 0 mm 5 mps 747 mmHg 61%
    15:00 +15°C° 0 mm 5 mps 746 mmHg 57%
    16:00 +15°C° 0 mm 5 mps 746 mmHg 54%
    17:00 +14°C° 0 mm 5 mps 746 mmHg 58%
    18:00 +13°C° 0 mm 4 mps 747 mmHg 63%
    19:00 +12°C° 0 mm 4 mps 747 mmHg 67%
    20:00 +10°C° 0 mm 4 mps 747 mmHg 68%
    21:00 +8°C° 0 mm 4 mps 747 mmHg 68%
    22:00 +8°C° 0 mm 3 mps 747 mmHg 69%
    23:00 +8°C° 0 mm 3 mps 748 mmHg 70%
    Show more